GW2366 Weather Reports


Display with metric or nautical units.
time (UTC)temp
F
wind
direction
speed
MPH
gust
MPH
rain 1hr
in
rain 24hr
in
rain mn
in
humidity
%
barometer
mb
20260905045235 55 303 0.0 0.0 0.00 0.01 0.01 93 1014.9
20260905044730 56 298 0.0 0.0 0.00 0.01 0.01 92 1014.7
20260905044225 56 298 0.0 0.0 0.00 0.01 0.01 92 1014.7
20260905043724 56 277 1.0 1.0 0.00 0.01 0.01 92 1014.4
20260905043219 56 277 1.0 1.0 0.00 0.01 0.01 92 1014.4
20260905042719 56 317 0.0 0.0 0.00 0.01 0.01 91 1014.5
20260905042218 56 308 0.0 1.0 0.00 0.01 0.01 91 1014.4
20260905041714 56 305 1.0 1.0 0.00 0.01 0.01 92 1014.6
20260905041209 56 297 0.0 0.0 0.00 0.01 0.01 92 1014.5
20260905040704 56 297 0.0 0.0 0.00 0.01 0.01 92 1014.5
20260905040202 56 323 0.0 0.0 0.00 0.01 0.01 91 1014.3
20260905035657 56 323 0.0 0.0 0.00 0.01 0.01 91 1014.3
20260905035154 56 294 0.0 0.0 0.00 0.01 0.01 91 1014.2
20260905034650 57 276 1.0 1.0 0.00 0.01 0.01 91 1014.2
20260905034149 57 299 0.0 0.0 0.00 0.01 0.01 90 1014.3
20260905033648 57 309 1.0 1.0 0.00 0.01 0.01 90 1014.1
20260905033144 57 303 0.0 1.0 0.00 0.01 0.01 89 1014.1
20260905032643 57 303 0.0 1.0 0.00 0.01 0.01 89 1014.1
20260905031837 57 306 1.0 1.0 0.00 0.01 0.01 88 1014.1
20260905031333 57 306 1.0 1.0 0.00 0.01 0.01 88 1014.1
20260905030828 57 245 3.0 3.0 0.00 0.01 0.01 88 1014.1
20260905030324 57 292 2.0 2.0 0.00 0.01 0.01 88 1014.0
20260905025823 58 307 2.0 2.0 0.00 0.01 0.01 87 1013.8
20260905025318 58 254 1.0 2.0 0.00 0.01 0.01 87 1013.8
20260905024815 58 306 1.0 2.0 0.00 0.01 0.01 85 1014.0
20260905024310 58 225 2.0 3.0 0.00 0.01 0.01 85 1013.9
20260905023805 59 308 0.0 1.0 0.00 0.01 0.01 84 1013.9
20260905023300 59 250 2.0 2.0 0.00 0.01 0.01 84 1013.9
20260905022759 59 255 1.0 1.0 0.00 0.01 0.01 84 1013.9
20260905022254 59 297 0.0 0.0 0.00 0.01 0.01 83 1014.1
20260905021749 60 294 3.0 5.0 0.00 0.01 0.01 83 1013.9
20260905021244 60 279 0.0 1.0 0.00 0.01 0.01 82 1014.0
20260905020744 60 312 1.0 1.0 0.00 0.01 0.01 81 1013.9
20260905020239 61 308 1.0 2.0 0.00 0.01 0.01 81 1013.9
20260905015738 61 297 1.0 1.0 0.00 0.01 0.01 80 1014.0
20260905015233 61 264 2.0 3.0 0.00 0.01 0.01 79 1013.8
20260905014731 62 297 2.0 3.0 0.00 0.01 0.01 77 1013.9
20260905014227 62 292 1.0 1.0 0.00 0.01 0.01 76 1014.0
20260905013723 62 333 1.0 1.0 0.00 0.01 0.01 76 1013.9
20260905013219 62 244 3.0 5.0 0.00 0.01 0.01 75 1013.9
20260905012714 62 238 1.0 2.0 0.00 0.01 0.01 75 1013.9
20260905012210 62 310 0.0 1.0 0.00 0.01 0.01 74 1013.9
20260905011706 62 273 2.0 6.0 0.00 0.01 0.01 75 1014.1
20260905011202 62 295 2.0 2.0 0.00 0.01 0.01 75 1014.1
20260905010701 63 301 4.0 6.0 0.00 0.01 0.01 75 1013.9
20260905010157 63 235 2.0 5.0 0.00 0.01 0.01 73 1013.9
20260905005654 63 206 1.0 2.0 0.00 0.01 0.01 73 1014.0
20260905005149 64 315 1.0 1.0 0.00 0.01 0.01 72 1014.0
20260905004643 64 310 1.0 1.0 0.00 0.01 0.01 72 1014.1
20260905004138 65 275 1.0 1.0 0.00 0.01 0.01 72 1013.8
20260905003634 65 275 1.0 1.0 0.00 0.01 0.01 72 1013.8
20260905003130 66 316 1.0 2.0 0.00 0.01 0.01 71 1013.8
20260905002625 66 299 3.0 3.0 0.00 0.01 0.01 69 1013.9
20260905002119 66 294 1.0 1.0 0.00 0.01 0.01 69 1013.9
20260905001614 66 304 3.0 3.0 0.00 0.01 0.01 68 1013.8
20260905001109 66 304 3.0 3.0 0.00 0.01 0.01 68 1013.8
20260905000604 67 281 4.0 5.0 0.00 0.01 0.01 66 1013.9
20260905000100 67 235 2.0 2.0 0.00 0.01 0.01 68 1013.8
20260904235600 67 235 2.0 2.0 0.00 0.01 0.01 68 1013.8
20260904235059 67 210 5.0 6.0 0.00 0.01 0.01 66 1014.2
20260904234554 67 248 4.0 6.0 0.00 0.01 0.01 64 1014.0
20260904234050 68 291 1.0 2.0 0.00 0.01 0.01 62 1014.1
20260904233545 68 5 2.0 2.0 0.00 0.01 0.01 64 1014.0
20260904233041 68 271 2.0 3.0 0.00 0.01 0.01 61 1013.9
20260904232538 69 312 5.0 7.0 0.00 0.01 0.01 61 1014.1
20260904232034 68 266 0.0 1.0 0.00 0.01 0.01 63 1014.1
20260904231529 69 244 0.0 2.0 0.00 0.01 0.01 60 1014.0
20260904231024 68 326 1.0 1.0 0.00 0.01 0.01 63 1014.0
20260904230523 69 306 1.0 1.0 0.00 0.01 0.01 61 1013.8
20260904230019 69 306 1.0 1.0 0.00 0.01 0.01 61 1013.8
20260904225517 69 266 3.0 3.0 0.00 0.01 0.01 60 1014.0
20260904225016 69 266 3.0 3.0 0.00 0.01 0.01 60 1014.0
20260904224511 70 300 3.0 5.0 0.00 0.01 0.01 58 1014.1
20260904224011 70 309 3.0 3.0 0.00 0.01 0.01 60 1014.3
20260904223510 70 296 1.0 1.0 0.00 0.01 0.01 59 1014.0
20260904223007 70 296 1.0 1.0 0.00 0.01 0.01 59 1014.0
20260904222501 71 289 3.0 5.0 0.00 0.01 0.01 58 1014.1
20260904221956 71 264 3.0 3.0 0.00 0.01 0.01 57 1014.2
20260904221451 70 228 2.0 3.0 0.00 0.01 0.01 59 1014.3
20260904220946 71 288 4.0 6.0 0.00 0.01 0.01 57 1014.1
20260904220445 71 303 2.0 2.0 0.00 0.01 0.01 58 1014.4
20260904215941 71 327 1.0 2.0 0.00 0.01 0.01 60 1014.4
20260904215436 70 273 3.0 5.0 0.00 0.01 0.01 59 1014.3
20260904214932 70 306 2.0 3.0 0.00 0.01 0.01 58 1014.3
20260904214427 70 253 3.0 3.0 0.00 0.01 0.01 60 1014.4
20260904213926 71 272 2.0 2.0 0.00 0.01 0.01 59 1014.3
20260904213415 70 326 4.0 5.0 0.00 0.01 0.01 60 1014.3
20260904212911 70 260 4.0 6.0 0.00 0.01 0.01 60 1014.2
20260904212410 70 249 2.0 3.0 0.00 0.01 0.01 59 1014.4
20260904211906 71 226 3.0 5.0 0.00 0.01 0.01 58 1014.2
20260904211401 71 264 2.0 2.0 0.00 0.01 0.01 59 1014.3
20260904210856 70 295 1.0 1.0 0.00 0.01 0.01 62 1014.5
20260904210355 70 295 4.0 6.0 0.00 0.01 0.01 59 1014.2
20260904205852 70 168 3.0 5.0 0.00 0.01 0.01 59 1014.4
20260904205347 70 168 3.0 5.0 0.00 0.01 0.01 59 1014.4
20260904204844 69 350 2.0 3.0 0.00 0.01 0.01 60 1014.3
20260904204340 71 203 4.0 7.0 0.00 0.01 0.01 59 1014.3
20260904203836 70 254 2.0 6.0 0.00 0.01 0.01 61 1014.3
20260904203332 70 314 1.0 1.0 0.00 0.01 0.01 60 1014.1
20260904202827 71 282 4.0 5.0 0.00 0.01 0.01 59 1014.3
20260904202323 70 308 3.0 5.0 0.00 0.01 0.01 59 1014.3
20260904201819 70 293 3.0 5.0 0.00 0.01 0.01 59 1014.1
20260904201319 68 217 3.0 5.0 0.00 0.01 0.01 65 1014.1
20260904200814 68 309 1.0 1.0 0.00 0.01 0.01 66 1014.1
20260904200313 68 317 0.0 0.0 0.00 0.01 0.01 67 1013.9
20260904195808 68 113 3.0 3.0 0.00 0.01 0.01 66 1014.0
20260904195306 67 59 4.0 7.0 0.00 0.01 0.01 69 1014.2
20260904194801 68 309 1.0 2.0 0.00 0.01 0.01 67 1014.3
20260904194300 68 126 3.0 5.0 0.00 0.01 0.01 70 1014.3
20260904193755 68 48 1.0 2.0 0.00 0.01 0.01 68 1014.1
20260904193251 67 273 1.0 1.0 0.00 0.01 0.01 68 1014.2
20260904192746 68 205 1.0 2.0 0.00 0.01 0.01 69 1014.3
20260904192241 68 224 2.0 2.0 0.00 0.01 0.01 69 1014.3
20260904191738 68 313 0.0 0.0 0.00 0.01 0.01 69 1014.4
20260904191234 68 240 1.0 1.0 0.00 0.01 0.01 74 1014.2
20260904190731 66 140 0.0 0.0 0.00 0.01 0.01 75 1014.4
20260904190226 66 140 0.0 0.0 0.00 0.01 0.01 75 1014.4
20260904185723 65 18 0.0 1.0 0.00 0.01 0.01 77 1014.4
20260904185222 65 39 1.0 2.0 0.00 0.01 0.01 78 1014.4
20260904184721 65 39 1.0 2.0 0.00 0.01 0.01 78 1014.4
20260904184217 65 23 1.0 1.0 0.00 0.01 0.01 77 1014.4
20260904183713 65 332 0.0 0.0 0.00 0.01 0.01 77 1014.4
20260904183207 65 356 0.0 1.0 0.00 0.01 0.01 78 1014.1
20260904182702 67 53 2.0 2.0 0.00 0.01 0.01 76 1014.2
20260904182157 67 24 1.0 1.0 0.00 0.01 0.01 77 1014.4
20260904181653 68 240 1.0 2.0 0.00 0.01 0.01 60 1014.2
20260904181152 67 325 0.0 0.0 0.00 0.01 0.01 73 1014.4
20260904180648 68 97 2.0 2.0 0.00 0.01 0.01 72 1014.2
20260904180143 67 20 0.0 1.0 0.00 0.01 0.01 75 1014.3
20260904175642 67 353 0.0 0.0 0.00 0.01 0.01 70 1014.4
20260904175140 66 127 2.0 2.0 0.00 0.01 0.01 77 1014.4
20260904174635 66 121 2.0 2.0 0.00 0.01 0.01 80 1014.3
20260904174132 65 296 0.0 0.0 0.00 0.01 0.01 76 1014.4
20260904173627 64 342 0.0 0.0 0.00 0.01 0.01 81 1014.3
20260904173117 63 28 2.0 2.0 0.00 0.01 0.01 83 1014.3
20260904172613 63 108 2.0 2.0 0.00 0.01 0.01 80 1014.3
20260904172112 64 33 1.0 1.0 0.00 0.01 0.01 83 1014.1
20260904171607 63 45 3.0 3.0 0.00 0.01 0.01 82 1014.2
20260904171103 64 240 3.0 3.0 0.00 0.01 0.01 75 1014.0
20260904170558 64 240 3.0 3.0 0.00 0.01 0.01 75 1014.0
20260904170055 63 101 1.0 2.0 0.00 0.01 0.01 82 1014.1
20260904165553 63 101 1.0 2.0 0.00 0.01 0.01 82 1014.1
20260904165053 64 14 0.0 1.0 0.00 0.01 0.01 83 1014.1
20260904164548 62 345 0.0 0.0 0.00 0.01 0.01 85 1014.0
20260904164044 63 27 1.0 2.0 0.00 0.01 0.01 83 1014.1
20260904163543 63 24 2.0 2.0 0.00 0.01 0.01 84 1013.9
20260904163038 63 270 3.0 3.0 0.00 0.01 0.01 79 1014.0
20260904162533 63 359 0.0 0.0 0.00 0.01 0.01 83 1013.9
20260904162028 63 352 0.0 0.0 0.00 0.01 0.01 84 1013.9
20260904161523 62 2 0.0 0.0 0.00 0.01 0.01 85 1013.9
20260904161018 61 3 0.0 0.0 0.00 0.01 0.01 86 1014.0
20260904160513 60 5 0.0 0.0 0.00 0.01 0.01 87 1014.0
20260904160010 60 357 0.0 0.0 0.00 0.01 0.01 89 1014.0
20260904155509 60 358 0.0 0.0 0.00 0.01 0.01 91 1014.1
20260904155008 59 6 0.0 0.0 0.00 0.01 0.01 97 1014.0
20260904154502 58 291 0.0 0.0 0.00 0.01 0.01 98 1013.9
20260904153956 58 273 0.0 0.0 0.00 0.01 0.01 99 1013.9
20260904153452 59 280 0.0 0.0 0.00 0.01 0.01 99 1014.0
20260904152948 60 283 0.0 0.0 0.00 0.01 0.01 99 1014.0
20260904152443 60 283 0.0 0.0 0.00 0.01 0.01 99 1013.8
20260904151943 58 283 0.0 0.0 0.00 0.01 0.01 99 1013.9
20260904151439 59 283 0.0 0.0 0.00 0.01 0.01 99 1013.9
20260904150933 58 283 0.0 0.0 0.00 0.01 0.01 99 1013.8
20260904150428 55 283 0.0 0.0 0.00 0.01 0.01 99 1013.9
20260904145926 54 283 0.0 0.0 0.00 0.01 0.01 99 1013.8
20260904145422 53 282 0.0 0.0 0.00 0.01 0.01 99 1013.8
20260904144917 53 282 0.0 0.0 0.00 0.01 0.01 99 1013.6
20260904144413 52 282 0.0 0.0 0.00 0.01 0.01 99 1013.5
20260904143909 51 282 0.0 0.0 0.00 0.01 0.01 99 1013.6
20260904143406 51 282 0.0 0.0 0.00 0.01 0.01 99 1013.6
20260904142902 50 282 0.0 0.0 0.00 0.01 0.01 99 1013.4
20260904142357 49 282 0.0 0.0 0.00 0.01 0.01 99 1013.4
20260904141857 49 282 0.0 0.0 0.00 0.01 0.01 99 1013.4
20260904141352 48 282 0.0 0.0 0.00 0.01 0.01 99 1013.4
20260904140849 48 282 0.0 0.0 0.00 0.01 0.01 99 1013.3
20260904140343 48 282 0.0 0.0 0.00 0.01 0.01 99 1013.2
20260904135842 48 282 0.0 0.0 0.00 0.01 0.01 99 1013.2
20260904134555 48 282 0.0 0.0 0.00 0.01 0.01 99 1012.9
20260904134048 48 282 0.0 0.0 0.00 0.01 0.01 99 1012.9
20260904133543 48 282 0.0 0.0 0.00 0.01 0.01 99 1012.9
20260904133039 49 282 0.0 0.0 0.00 0.01 0.01 99 1012.7
20260904131244 48 282 0.0 0.0 0.07 0.01 0.01 99 1012.5
20260904130744 48 282 0.0 0.0 0.07 0.01 0.01 99 1012.5
20260904130243 48 282 0.0 0.0 0.07 0.01 0.01 99 1012.4
20260904125550 49 282 0.0 0.0 0.00 0.00 0.00 99 1012.5
20260904125049 49 282 0.0 0.0 0.00 0.00 0.00 99 1012.5
20260904124544 49 282 0.0 0.0 0.00 0.00 0.00 99 1012.5
20260904124040 49 282 0.0 0.0 0.00 0.00 0.00 99 1012.4
20260904123540 49 282 0.0 0.0 0.00 0.00 0.00 99 1012.5
20260904123036 49 283 0.0 0.0 0.00 0.00 0.00 99 1012.5
20260904122531 49 283 0.0 0.0 0.00 0.00 0.00 99 1012.5
20260904122026 49 283 0.0 0.0 0.00 0.00 0.00 99 1012.4
20260904121521 49 283 0.0 0.0 0.00 0.00 0.00 99 1012.3
20260904121017 49 283 0.0 0.0 0.00 0.00 0.00 99 1012.3
20260904120513 49 283 0.0 0.0 0.00 0.00 0.00 99 1012.3
20260904120008 49 283 0.0 0.0 0.00 0.00 0.00 99 1012.3
20260904115504 49 285 0.0 0.0 0.00 0.00 0.00 99 1012.4
20260904115003 49 285 0.0 0.0 0.00 0.00 0.00 99 1012.3
20260904114458 49 285 0.0 0.0 0.00 0.00 0.00 99 1012.3
20260904113953 49 284 0.0 0.0 0.00 0.00 0.00 99 1012.3
20260904113452 49 284 0.0 0.0 0.00 0.00 0.00 99 1012.3
20260904112945 49 284 0.0 0.0 0.00 0.00 0.00 99 1012.5
20260904112441 50 284 0.0 0.0 0.00 0.00 0.00 99 1012.5
20260904111931 50 284 0.0 0.0 0.00 0.00 0.00 99 1012.4
20260904111426 50 286 0.0 0.0 0.00 0.00 0.00 99 1012.4
20260904110917 50 286 0.0 0.0 0.00 0.00 0.00 99 1012.4
20260904110415 50 286 0.0 1.0 0.00 0.00 0.00 99 1012.3
20260904105911 50 286 0.0 1.0 0.00 0.00 0.00 99 1012.4
20260904105406 50 288 0.0 0.0 0.00 0.00 0.00 99 1012.4
20260904104901 50 287 0.0 0.0 0.00 0.00 0.00 99 1012.2
20260904104355 50 288 0.0 0.0 0.00 0.00 0.00 99 1012.5
20260904103853 50 287 0.0 0.0 0.00 0.00 0.00 99 1012.2
20260904103353 51 287 0.0 0.0 0.00 0.00 0.00 99 1012.4
20260904102849 51 288 0.0 0.0 0.00 0.00 0.00 99 1012.2
20260904102344 51 288 0.0 0.0 0.00 0.00 0.00 99 1012.2
20260904101840 51 288 0.0 0.0 0.00 0.00 0.00 99 1012.2
20260904101336 51 288 0.0 0.0 0.00 0.00 0.00 99 1012.4
20260904100831 51 288 0.0 0.0 0.00 0.00 0.00 99 1012.4
20260904100327 52 287 1.0 1.0 0.00 0.00 0.00 99 1012.4
20260904095822 52 287 0.0 0.0 0.00 0.00 0.00 99 1012.4
20260904095316 52 288 0.0 0.0 0.00 0.00 0.00 99 1012.3
20260904094812 51 287 0.0 0.0 0.00 0.00 0.00 99 1012.3
20260904094306 51 287 0.0 0.0 0.00 0.00 0.00 99 1012.1
20260904093803 51 287 0.0 0.0 0.00 0.00 0.00 99 1012.2
20260904093257 51 287 0.0 0.0 0.00 0.00 0.00 99 1012.0
20260904092752 51 287 0.0 0.0 0.00 0.00 0.00 99 1012.2
20260904092249 51 287 0.0 0.0 0.00 0.00 0.00 99 1012.0
20260904091744 51 289 0.0 0.0 0.00 0.00 0.00 99 1012.1
20260904091239 51 289 0.0 0.0 0.00 0.00 0.00 99 1012.1
20260904090735 51 289 0.0 0.0 0.00 0.00 0.00 99 1012.0
20260904090230 51 290 0.0 0.0 0.00 0.00 0.00 99 1012.2
20260904085725 51 290 0.0 0.0 0.00 0.00 0.00 99 1012.4
20260904085220 52 289 0.0 0.0 0.00 0.00 0.00 99 1012.3
20260904084720 52 293 0.0 0.0 0.00 0.00 0.00 99 1012.3
20260904084216 52 297 0.0 0.0 0.00 0.00 0.00 99 1012.4
20260904083712 52 291 0.0 0.0 0.00 0.00 0.00 99 1012.2
20260904083209 52 291 0.0 0.0 0.00 0.00 0.00 99 1012.5
20260904082703 53 291 0.0 0.0 0.00 0.00 0.00 99 1012.3
20260904082159 53 290 0.0 0.0 0.00 0.00 0.00 99 1012.3
20260904081653 53 296 0.0 0.0 0.00 0.00 0.00 99 1012.3
20260904081148 53 298 0.0 0.0 0.00 0.00 0.00 99 1012.3
20260904080645 53 300 0.0 0.0 0.00 0.00 0.00 99 1012.1
20260904080140 53 294 0.0 0.0 0.00 0.00 0.00 99 1012.2
20260904075637 53 297 0.0 0.0 0.00 0.00 0.00 99 1012.3
20260904075137 53 303 0.0 0.0 0.00 0.00 0.00 99 1012.2
20260904074631 53 304 0.0 0.0 0.00 0.00 0.00 99 1012.3
20260904074125 53 287 0.0 1.0 0.00 0.00 0.00 99 1012.3
20260904073620 54 310 0.0 0.0 0.00 0.00 0.00 99 1012.3
20260904073117 53 312 0.0 0.0 0.00 0.00 0.00 99 1012.3
20260904072612 54 312 0.0 0.0 0.00 0.00 0.00 99 1012.2
20260904072107 53 313 0.0 0.0 0.00 0.00 0.00 99 1012.2
20260904071603 54 313 0.0 0.0 0.00 0.00 0.00 99 1012.2
20260904071058 54 304 0.0 0.0 0.00 0.00 0.00 99 1012.2
20260904070556 54 300 0.0 0.0 0.00 0.00 0.00 99 1012.3
20260904070051 54 305 0.0 0.0 0.00 0.00 0.00 99 1012.2
20260904065546 54 300 0.0 0.0 0.00 0.76 0.76 99 1012.0
20260904065043 54 278 1.0 1.0 0.00 0.76 0.76 99 1012.2
20260904064539 54 290 1.0 1.0 0.00 0.76 0.76 99 1012.2
20260904064038 55 290 0.0 1.0 0.00 0.76 0.76 99 1012.2
20260904063535 55 304 0.0 0.0 0.00 0.76 0.76 99 1012.4
20260904063029 55 302 0.0 0.0 0.00 0.76 0.76 99 1012.3
20260904062526 55 300 0.0 0.0 0.00 0.76 0.76 99 1012.0
20260904062021 55 302 0.0 0.0 0.00 0.76 0.76 99 1012.2
20260904061511 55 272 1.0 1.0 0.00 0.76 0.76 99 1012.1
20260904061008 55 301 0.0 0.0 0.00 0.76 0.76 99 1012.2
20260904060503 55 280 0.0 1.0 0.00 0.76 0.76 99 1012.0
20260904055959 55 303 0.0 0.0 0.00 0.76 0.76 99 1012.3
20260904055454 55 304 0.0 0.0 0.00 0.76 0.76 99 1012.4
20260904054950 56 304 0.0 0.0 0.00 0.76 0.76 99 1012.4
20260904054445 56 284 1.0 1.0 0.00 0.76 0.76 99 1012.2
20260904053940 56 313 0.0 0.0 0.00 0.76 0.76 99 1012.2
20260904053440 57 300 0.0 0.0 0.00 0.76 0.76 99 1012.3
20260904052936 57 307 0.0 0.0 0.00 0.76 0.76 99 1012.6
20260904052432 57 301 0.0 0.0 0.00 0.76 0.76 99 1012.3
20260904051928 57 316 0.0 1.0 0.00 0.76 0.76 98 1012.4
20260904051425 57 284 1.0 1.0 0.00 0.76 0.76 98 1012.6
20260904050923 58 283 1.0 1.0 0.00 0.76 0.76 98 1012.5
20260904050420 58 291 0.0 0.0 0.00 0.76 0.76 98 1012.4
20260904045920 58 291 0.0 0.0 0.00 0.76 0.76 97 1012.5
20260904045415 58 288 0.0 0.0 0.00 0.76 0.76 97 1012.6